Date,TemperatureHighF,TemperatureAvgF,TemperatureLowF,DewpointHighF,DewpointAvgF,DewpointLowF,HumidityHigh,HumidityAvg,HumidityLow,PressureMaxIn,PressureMinIn,WindSpeedMaxMPH,WindSpeedAvgMPH,GustSpeedMaxMPH,PrecipitationSumIn
2012-1-1,78.0,66.7,57.7,64.9,60.6,56.1,96,82,57,30.24,30.13,14,1,14,0.01
2012-1-2,74.3,62.8,54.4,65.9,56.1,44.3,97,80,55,30.21,30.05,19,3,19,0.01
2012-1-3,56.9,50.1,42.3,47.0,34.4,19.4,92,58,27,30.35,30.17,24,4,24,0.00
2012-1-4,62.9,48.5,36.8,41.9,33.4,25.6,74,57,34,30.39,30.24,12,2,12,0.00
2012-1-5,67.3,52.8,40.5,52.6,39.8,30.5,93,65,30,30.30,30.16,13,2,13,0.00
2012-1-6,72.7,56.9,45.7,56.2,50.2,44.2,97,81,43,30.21,30.09,10,1,10,0.00
2012-1-7,72.9,59.6,48.2,57.9,52.3,46.8,97,80,46,30.17,30.08,12,1,12,0.00
2012-1-8,77.8,63.6,51.5,61.2,54.8,49.5,95,76,47,30.21,30.10,17,1,17,0.01
2012-1-9,79.7,66.6,56.2,63.3,58.4,53.8,94,77,45,30.18,30.04,11,1,11,0.00
2012-1-10,78.8,66.1,56.4,64.0,59.2,54.7,96,80,50,30.08,29.92,13,1,13,0.01
2012-1-11,74.0,68.6,62.9,68.4,64.2,59.5,94,86,77,29.95,29.73,30,4,30,0.00
2012-1-12,75.8,67.9,61.0,64.4,62.0,59.3,96,83,59,29.97,29.84,16,2,16,0.00
2012-1-13,70.8,63.6,54.8,62.6,55.2,43.9,96,75,53,30.19,29.96,14,3,14,0.00
2012-1-14,61.5,54.2,48.9,46.0,39.7,30.4,78,60,31,30.34,30.18,18,4,18,0.00
2012-1-15,71.4,55.5,41.3,46.9,38.3,27.3,84,55,30,30.42,30.30,17,2,17,0.00
2012-1-16,74.1,61.0,50.9,54.8,49.6,41.5,84,67,49,30.40,30.26,18,3,18,0.00
2012-1-17,75.8,63.2,51.7,60.0,55.4,49.8,96,78,53,30.29,30.13,13,1,13,0.00
2012-1-18,75.3,65.2,54.6,63.8,59.4,52.7,96,82,61,30.15,29.98,16,2,16,0.00
2012-1-19,75.3,65.5,58.9,62.5,54.3,37.1,94,73,25,30.14,29.98,16,4,16,0.00
2012-1-24,81.4,72.1,65.5,66.8,63.5,60.0,91,76,49,30.13,30.04,12,1,12,0.00
2012-1-25,82.0,70.8,62.0,67.5,63.0,59.6,96,78,49,30.14,30.02,16,2,16,0.00
2012-1-26,83.3,72.3,64.3,68.3,64.5,59.8,95,78,47,30.07,29.93,20,3,20,0.00
2012-1-27,74.5,69.1,64.3,68.4,65.7,62.3,96,89,76,30.03,29.93,29,2,29,0.17
2012-1-28,76.0,67.4,63.3,64.1,60.8,57.3,95,80,60,30.15,30.03,15,2,15,0.00
2012-1-29,75.8,66.3,60.4,58.1,55.6,52.3,83,70,48,30.24,30.11,14,3,14,0.00
2012-1-30,77.2,64.9,54.8,59.7,55.0,50.5,90,72,52,30.29,30.19,21,5,21,0.00
2012-1-31,80.4,68.7,60.4,60.5,57.1,54.1,83,68,44,30.27,30.15,17,3,17,0.00
2012-2-1,81.9,69.6,60.5,65.5,61.7,57.2,93,77,48,30.21,30.08,14,2,14,0.00
2012-2-2,79.0,69.8,61.7,68.9,64.2,60.0,96,83,56,30.14,30.03,8,1,9,0.00
2012-2-3,77.3,71.2,65.3,67.9,64.9,62.7,92,81,64,30.16,30.06,14,2,14,0.00
2012-2-4,81.9,72.2,65.9,67.1,64.7,62.5,91,78,55,30.12,30.00,20,3,20,0.23
2012-2-5,78.3,71.4,64.9,69.1,66.7,63.0,96,86,68,30.04,29.94,9,0,9,0.00
2012-2-6,78.8,70.9,65.6,71.1,66.6,63.5,95,87,66,30.03,29.94,24,2,24,0.01
2012-2-7,79.9,71.8,66.5,70.6,67.4,65.0,96,86,67,30.01,29.91,10,2,11,0.00
2012-2-8,78.6,69.9,64.3,66.6,64.2,60.9,95,83,62,30.08,29.96,12,3,12,0.00
2012-2-9,77.1,68.2,60.0,63.3,58.7,51.7,86,72,60,30.11,30.00,16,3,16,0.00
2012-2-10,81.7,70.8,65.2,70.3,66.1,61.9,92,85,66,30.05,29.86,16,2,16,0.00
2012-2-11,70.8,64.2,55.1,65.5,57.1,44.3,95,79,56,30.10,29.87,27,5,27,0.14
2012-2-12,56.9,49.6,42.9,44.9,31.0,22.9,70,50,27,30.29,30.10,22,6,22,0.00
2012-2-13,70.4,54.9,40.7,53.8,43.2,33.2,83,66,46,30.23,30.06,15,3,15,0.00
2012-2-14,77.7,65.2,52.7,60.8,56.2,49.3,91,74,53,30.11,30.02,14,2,14,0.00
2012-2-15,81.3,68.0,56.7,63.7,60.2,54.9,96,78,46,30.18,30.07,13,1,13,0.00
2012-2-16,80.8,68.7,59.2,66.4,62.5,57.7,96,82,55,30.16,30.05,16,2,17,0.00
2012-2-17,78.7,70.0,63.0,68.3,65.0,61.5,97,85,66,30.07,29.97,17,2,17,0.00
2012-2-18,78.7,69.8,62.1,68.7,64.9,60.7,97,85,68,30.00,29.86,14,2,14,0.01
2012-2-19,79.6,72.8,65.6,72.9,68.5,60.9,96,87,78,29.94,29.82,28,5,28,0.01
2012-2-20,75.8,66.9,59.3,61.2,55.1,50.7,83,67,43,30.15,29.93,15,3,15,0.00
2012-2-21,80.5,65.6,54.3,62.8,56.8,51.4,92,75,43,30.18,30.07,13,2,13,0.00
2012-2-22,77.5,68.9,58.8,65.5,62.0,56.5,95,80,58,30.11,29.92,14,2,14,0.00
2012-2-23,79.9,71.5,64.0,70.5,66.5,62.2,96,85,63,29.98,29.90,18,3,18,0.00
2012-2-24,83.6,73.5,65.2,72.6,67.7,64.0,97,84,58,30.01,29.91,25,3,25,0.01
2012-2-25,77.0,69.4,62.3,70.4,62.4,51.6,97,80,58,30.16,29.98,16,3,16,0.02
2012-2-26,78.0,69.5,58.5,67.4,61.3,51.1,88,75,67,30.22,30.13,19,4,19,0.10
2012-2-27,83.2,73.5,67.4,71.6,68.0,65.0,95,84,60,30.24,30.13,14,2,14,0.91
2012-2-28,85.9,74.3,66.2,71.5,66.9,63.3,97,80,49,30.22,30.11,16,2,16,0.01
2012-2-29,83.8,74.0,66.4,70.6,67.6,64.3,95,82,59,30.18,30.05,14,2,14,0.01
2012-3-1,81.8,73.0,66.4,70.9,67.5,64.6,96,84,59,30.10,29.98,15,2,15,0.00
2012-3-2,82.8,73.5,65.9,71.1,68.1,64.3,96,84,62,30.03,29.92,18,2,18,0.00
2012-3-3,83.5,75.1,67.5,72.7,68.7,65.7,96,82,56,29.93,29.80,24,4,24,0.00
2012-3-4,76.7,67.9,54.4,72.9,53.7,34.0,91,64,32,30.17,29.75,29,8,29,0.17
2012-3-5,74.7,60.5,48.9,48.3,38.7,30.3,77,49,20,30.33,30.15,19,3,19,0.00
2012-3-6,79.0,65.5,52.1,61.1,52.9,43.7,83,65,42,30.33,30.22,26,4,26,0.00
2012-3-7,81.1,71.0,62.7,64.5,61.5,57.7,86,73,56,30.29,30.18,21,4,21,0.00
2012-3-8,81.5,72.2,65.8,68.7,66.0,63.0,93,82,61,30.21,30.09,20,3,20,0.00
2012-3-9,81.2,72.1,65.3,69.6,66.9,63.5,96,85,61,30.16,30.05,14,2,14,0.04
2012-3-10,83.0,73.1,66.4,68.9,66.9,64.6,95,82,56,30.14,30.05,14,2,14,0.18
2012-3-11,83.6,73.4,66.8,68.6,66.0,62.4,94,79,51,30.21,30.11,19,2,19,0.01
2012-3-12,69.1,67.7,66.4,65.5,64.2,63.3,90,88,87,30.20,30.15,8,2,8,0.00
2012-4-5,81.6,78.6,68.7,72.4,70.6,65.7,90,77,69,29.84,29.74,19,5,19,0.00
2012-4-6,82.5,77.3,69.2,73.6,66.8,58.0,93,71,55,29.90,29.70,24,5,24,0.37
2012-4-7,83.7,72.2,62.5,63.7,60.1,56.8,86,68,44,30.08,29.89,20,4,20,0.00
2012-4-8,84.0,71.9,60.4,61.0,56.5,52.5,84,61,35,30.11,30.00,15,2,15,0.00
2012-4-9,84.3,72.0,59.1,63.5,58.6,52.6,93,66,35,30.07,29.93,14,2,14,0.00
2012-4-10,82.5,72.8,62.1,67.5,63.0,57.8,94,73,45,30.06,29.93,16,1,17,0.00
2012-4-11,81.8,72.4,63.0,66.5,63.2,58.7,96,75,49,30.04,29.94,19,2,19,0.00
2012-4-12,82.7,72.0,60.6,65.9,60.8,56.4,96,70,45,30.03,29.94,16,2,16,0.00
2012-4-13,85.0,74.2,63.4,68.5,63.4,52.3,95,72,35,30.06,29.96,16,2,16,0.00
2012-4-14,78.3,72.3,67.9,67.7,65.2,62.2,93,79,64,30.16,30.03,24,4,25,0.00
2012-4-15,83.3,73.8,65.2,62.8,60.9,59.2,85,66,45,30.16,30.07,18,3,18,0.00
2012-4-16,85.1,74.3,64.5,63.7,60.4,55.4,83,64,37,30.15,30.05,20,4,20,0.00
2012-4-17,86.3,74.6,62.9,66.7,61.4,56.3,90,66,37,30.12,29.99,14,2,15,0.00
2012-4-18,83.5,74.2,63.2,69.2,64.5,60.1,92,73,48,30.06,29.91,19,3,19,0.00
2012-4-19,84.0,76.1,68.8,71.1,67.9,63.6,88,77,54,29.95,29.84,19,3,19,0.00
2012-4-20,83.7,76.2,68.9,72.0,69.3,66.3,93,80,62,29.89,29.78,19,3,19,0.00
2012-4-21,74.8,70.2,67.7,67.3,65.9,62.9,94,87,69,29.85,29.59,24,3,24,0.40
2012-4-22,79.3,71.6,65.9,69.1,65.1,62.0,94,81,58,29.59,29.52,29,5,29,0.03
2012-4-28,74.5,73.4,73.0,68.7,68.5,68.3,86,85,82,30.04,30.02,4,0,4,0.00
2012-4-29,78.1,73.9,70.2,70.7,68.6,66.2,90,84,75,30.03,29.95,16,2,16,0.00
2012-4-30,82.9,75.1,69.3,71.9,67.4,65.2,89,78,59,30.01,29.92,23,5,26,0.03
2012-5-1,85.0,75.6,71.3,73.3,69.9,67.7,91,83,64,30.01,29.93,20,3,20,0.07
2012-5-2,87.8,78.3,70.4,72.0,69.1,66.7,94,75,51,30.03,29.94,18,4,18,0.02
2012-5-3,88.8,78.2,69.1,72.3,68.8,63.4,92,74,45,30.05,29.96,16,3,16,0.01
2012-5-4,88.7,77.4,69.2,71.1,68.4,62.4,94,75,43,30.05,29.93,15,2,15,0.00
2012-5-5,84.7,76.4,65.8,70.3,67.8,63.7,96,76,56,29.99,29.88,14,2,14,0.00
2012-5-6,84.6,76.6,67.8,71.6,69.4,65.7,95,80,59,29.95,29.86,15,2,16,0.00
2012-5-7,84.4,76.1,68.4,71.4,69.2,66.7,96,80,59,29.90,29.81,19,2,19,0.00
2012-5-8,84.8,76.6,68.8,72.7,69.8,66.9,95,81,61,29.89,29.81,18,2,18,0.00
2012-5-9,85.0,77.5,68.5,73.6,70.7,66.7,95,80,63,29.87,29.77,19,3,20,0.00
2012-5-10,85.1,78.8,71.5,74.0,71.2,66.8,95,78,59,29.89,29.75,19,3,19,0.04
2012-5-11,92.0,76.3,64.7,74.4,67.8,61.6,95,77,42,30.05,29.85,19,2,19,0.73
2012-5-12,89.4,79.2,71.2,72.6,68.7,65.6,91,72,48,30.10,30.00,19,3,19,0.27
2012-5-13,88.8,76.2,68.5,71.7,67.6,62.5,96,77,42,30.08,29.94,26,2,26,0.54
2012-5-14,86.2,77.1,70.1,73.6,70.2,68.0,96,81,55,30.02,29.88,18,2,18,0.82
2012-5-15,87.7,77.9,71.4,74.0,70.5,67.0,91,79,58,29.98,29.90,13,1,13,0.00
2012-5-16,81.0,74.6,70.5,73.1,70.0,67.1,95,86,64,29.99,29.87,7,1,7,0.12
2012-5-17,82.7,76.4,69.9,73.6,71.3,68.1,95,85,70,29.93,29.84,16,2,16,0.45
2012-5-18,86.3,78.8,71.7,73.0,70.8,68.9,94,78,61,29.91,29.82,17,2,17,0.00
2012-5-19,87.7,76.6,69.7,73.1,69.3,66.8,96,80,51,29.93,29.81,16,2,16,0.00
2012-5-20,89.0,77.7,69.1,72.8,69.0,65.2,96,77,46,29.94,29.83,16,2,16,0.01
2012-5-21,88.3,78.4,68.8,72.2,68.2,63.8,92,72,47,29.97,29.86,13,2,13,0.00
2012-5-22,89.3,78.4,66.9,72.7,65.8,55.3,92,68,38,29.93,29.83,16,2,19,0.00
2012-5-23,91.5,80.0,71.0,73.4,70.6,68.1,93,75,49,29.89,29.75,18,2,18,0.04
2012-5-24,89.5,80.0,71.7,74.0,71.6,69.4,93,77,56,29.87,29.77,18,2,18,0.00
2012-5-25,93.0,81.6,71.8,75.5,72.2,69.4,94,75,47,29.99,29.84,13,2,13,0.00
2012-5-26,92.0,80.8,73.3,74.7,70.5,64.0,95,74,41,30.01,29.88,14,2,14,0.00
2012-5-27,87.3,79.7,70.4,75.9,72.7,68.6,96,80,60,29.95,29.82,18,2,18,0.00
2012-5-28,87.2,82.0,76.7,75.4,73.6,67.5,90,76,58,29.92,29.83,19,3,19,0.00
2012-5-29,87.0,80.4,73.0,75.1,72.3,68.9,90,77,57,29.93,29.85,18,3,18,0.00
2012-5-30,87.7,80.7,73.3,75.3,72.7,70.8,93,78,59,29.90,29.80,17,3,17,0.00
2012-5-31,86.2,79.3,72.3,75.5,72.5,70.5,96,81,62,29.92,29.82,18,2,18,0.00
2012-6-1,83.9,77.3,73.0,75.5,72.5,70.5,94,86,72,29.92,29.81,18,3,18,0.19
2012-6-2,86.0,79.2,74.3,75.9,73.0,68.2,96,82,57,29.95,29.85,18,2,18,0.04
2012-6-3,90.3,80.4,71.2,75.3,71.1,66.9,96,75,50,30.00,29.91,14,2,14,0.00
2012-6-4,86.2,79.5,70.7,75.5,72.4,66.6,96,80,56,29.97,29.85,17,2,17,0.00
2012-6-5,86.9,82.0,78.6,76.8,75.5,73.7,90,81,69,29.87,29.77,18,2,18,0.00
2012-6-6,86.2,80.5,73.1,76.6,73.9,67.0,90,81,69,29.90,29.81,21,3,21,0.00
2012-6-7,87.8,82.1,77.1,77.1,74.6,68.0,90,79,62,29.93,29.85,19,3,19,0.00
2012-6-8,87.8,81.7,75.6,78.4,75.7,71.7,93,82,70,29.94,29.85,19,2,19,0.00
2012-6-9,90.2,80.1,70.8,78.5,73.6,69.1,95,82,60,29.99,29.87,31,3,31,1.45
2012-6-10,92.1,82.1,74.9,78.3,75.3,72.7,96,81,57,30.08,29.94,16,2,16,0.00
2012-6-11,92.6,83.7,75.5,76.4,73.6,69.6,94,73,51,30.08,29.99,15,2,15,0.00
2012-6-12,92.2,81.3,70.1,74.5,70.3,67.9,94,71,48,30.04,29.90,11,1,11,0.00
2012-6-13,89.9,81.4,70.6,76.1,72.0,67.5,92,74,52,29.95,29.85,11,2,18,0.00
2012-6-14,89.5,82.3,73.9,76.8,73.9,70.3,96,77,56,29.95,29.84,18,2,18,0.00
2012-6-15,92.4,79.3,71.7,75.9,71.1,64.7,93,78,44,29.99,29.86,25,2,25,0.27
2012-6-16,88.8,79.3,72.0,73.8,70.5,66.2,95,76,54,29.99,29.90,20,3,20,0.00
2012-6-17,89.0,77.5,70.2,70.2,67.8,62.9,92,75,44,29.99,29.91,19,2,19,0.00
2012-6-20,84.8,79.4,76.4,74.7,73.5,72.5,91,83,70,29.94,29.88,15,3,15,0.10
2012-6-21,87.3,78.5,74.2,75.6,73.2,71.7,93,84,64,29.94,29.80,16,2,16,0.04
2012-6-22,81.4,76.8,74.6,75.5,73.8,72.4,95,91,80,29.91,29.78,12,1,12,0.12
2012-6-23,79.3,75.7,72.6,76.8,73.5,71.1,95,93,89,29.91,29.80,12,2,14,0.26
2012-6-24,83.9,79.0,74.0,78.4,75.4,71.5,96,89,79,29.90,29.72,33,6,33,1.21
2012-6-25,85.7,81.5,73.0,76.7,75.0,70.0,93,81,73,29.78,29.67,27,10,35,0.42
2012-6-26,85.3,81.4,75.0,77.9,75.9,72.0,94,84,77,29.72,29.63,34,10,34,0.84
2012-6-27,86.1,81.8,76.2,78.0,75.9,73.1,92,82,69,29.96,29.71,27,6,27,0.06
2012-6-28,89.7,81.2,74.3,76.2,73.6,71.0,93,79,56,30.05,29.96,13,2,13,0.00
2012-6-29,89.6,81.4,72.0,74.7,72.1,68.2,96,75,51,30.02,29.91,14,2,14,0.00
2012-6-30,87.8,81.1,73.2,76.8,74.3,71.4,95,81,62,29.98,29.90,15,2,15,0.00
2012-7-1,90.8,82.6,73.7,77.4,73.3,68.7,96,76,51,30.03,29.95,15,2,15,0.00
2012-7-2,90.9,81.8,74.3,76.7,73.9,70.2,96,79,56,30.08,29.95,19,2,19,0.06
2012-7-3,88.0,76.2,72.8,75.5,72.2,70.3,95,88,64,30.03,29.97,6,0,8,0.01
2012-7-10,74.2,73.6,72.7,72.3,71.7,70.6,94,94,93,29.99,29.93,11,2,11,0.76
2012-7-11,87.5,77.9,72.2,75.7,72.9,70.5,95,85,62,30.01,29.91,14,1,14,0.02
2012-7-12,86.0,79.5,75.1,76.4,74.2,72.4,95,84,67,29.98,29.90,12,1,12,0.07
2012-7-13,90.2,79.1,74.8,76.1,73.9,70.7,94,85,55,30.01,29.93,21,1,21,0.24
2012-7-14,88.3,79.1,74.7,76.6,73.7,71.8,95,84,60,30.04,29.94,18,1,18,0.80
2012-7-15,87.3,77.8,73.8,75.8,73.5,71.9,95,87,63,30.06,29.98,15,2,15,0.33
2012-7-16,84.6,76.7,73.0,76.5,73.2,70.8,94,89,70,30.04,29.93,11,1,11,0.45
2012-7-17,82.3,77.1,74.0,75.3,73.5,71.8,96,89,74,30.01,29.93,11,1,11,0.03
2012-7-18,89.0,81.7,73.7,78.2,75.1,71.9,95,81,61,30.08,29.96,14,2,14,0.01
2012-7-19,91.7,83.9,77.4,79.7,77.1,73.0,93,81,57,30.14,30.04,13,2,13,0.00
2012-7-20,94.8,83.4,75.0,78.3,75.0,69.5,94,78,45,30.09,29.97,18,2,18,0.30
2012-7-21,94.5,80.5,75.3,78.5,75.0,72.8,96,85,51,30.06,29.97,15,2,15,0.06
2012-7-22,88.3,79.3,74.7,79.1,75.2,72.2,94,88,66,30.08,29.99,20,2,20,0.38
2012-7-23,89.2,82.3,74.9,78.4,74.9,69.4,93,79,64,30.13,30.04,15,2,15,0.44
2012-7-24,88.7,81.2,74.9,79.3,74.4,71.4,93,81,66,30.10,29.98,14,1,15,0.00
2012-7-25,89.2,83.0,76.1,78.1,75.1,72.4,92,78,63,30.02,29.96,13,2,15,0.00
2012-7-26,89.0,83.1,76.0,77.8,75.8,73.8,94,80,65,30.01,29.93,14,2,14,0.00
2012-7-27,90.4,82.9,76.2,77.4,75.2,70.8,93,79,56,30.05,29.95,13,2,14,0.00
2012-7-28,89.8,81.5,75.8,78.0,75.0,72.2,93,81,59,30.07,29.98,11,1,11,0.17
2012-7-29,89.0,82.4,75.6,79.5,75.8,73.5,94,81,66,30.05,29.96,15,2,15,0.06
2012-7-30,91.5,82.8,76.3,77.7,75.1,69.4,95,79,55,30.03,29.93,10,2,14,0.00
2012-7-31,90.2,82.6,74.7,77.4,74.3,70.9,92,77,57,30.01,29.93,15,2,15,0.00
2012-8-1,90.0,83.1,76.2,77.3,74.3,70.4,93,76,55,29.99,29.90,11,2,16,0.00
2012-8-2,90.9,82.8,75.3,76.8,73.8,69.7,95,76,55,29.97,29.88,20,2,20,0.00
2012-8-3,93.6,79.9,73.9,76.0,72.9,67.8,95,81,48,29.98,29.89,29,1,29,0.58
2012-8-4,93.4,82.0,74.2,76.9,73.5,69.9,95,78,48,30.01,29.90,16,2,16,0.02
2012-8-5,91.5,79.7,75.5,77.7,74.3,71.9,94,85,56,30.03,29.96,14,2,14,0.49
2012-8-6,89.9,79.2,74.9,77.7,75.0,71.7,95,88,64,30.03,29.94,18,1,18,0.17
2012-8-7,91.9,83.0,75.1,79.2,76.3,73.3,95,81,60,30.00,29.91,13,1,13,0.01
2012-8-8,95.3,83.8,75.5,78.7,75.0,70.2,94,76,49,30.01,29.90,13,2,13,0.42
2012-8-9,93.7,81.7,73.9,79.0,74.6,69.0,95,80,53,29.99,29.85,14,2,14,0.15
2012-8-10,92.0,79.3,73.5,76.8,73.1,68.4,96,83,47,29.96,29.88,12,1,12,0.02
2012-8-11,87.4,78.1,74.6,77.0,74.0,71.7,95,88,67,30.00,29.89,22,2,22,0.39
2012-8-12,81.6,76.9,74.0,77.8,74.5,71.8,95,92,79,30.03,29.93,12,1,12,0.41
2012-8-13,90.4,81.9,75.1,78.5,75.3,72.5,96,82,59,30.04,29.95,14,1,14,0.01
2012-8-14,90.3,80.9,75.4,78.3,74.7,71.2,95,82,61,30.02,29.92,16,2,16,0.02
2012-8-15,92.2,81.5,74.6,79.1,75.0,72.3,94,82,57,30.01,29.91,16,1,16,0.03
2012-8-16,90.1,82.8,76.9,79.1,76.3,73.2,95,81,61,30.04,29.94,13,1,13,0.00
2012-8-17,87.5,81.7,77.5,79.1,76.4,74.0,94,85,67,30.01,29.91,15,1,15,0.11
2012-8-18,88.8,81.3,76.4,77.7,75.3,72.7,93,82,65,29.96,29.86,14,2,14,0.02
2012-8-19,89.4,83.0,76.7,77.9,75.9,73.4,94,80,61,29.97,29.89,18,2,18,0.00
2012-8-20,90.6,84.0,76.9,78.2,75.9,72.3,94,77,62,29.98,29.88,21,3,21,0.00
2012-8-21,92.5,82.5,73.8,78.8,74.6,68.0,93,78,47,30.09,29.92,21,3,22,0.42
2012-8-22,90.3,80.7,72.8,78.3,73.4,71.0,95,80,55,30.09,29.96,16,2,16,0.18
2012-8-26,81.2,76.7,75.4,76.1,74.5,73.2,95,93,83,29.78,29.63,24,8,26,1.73
2012-8-27,87.2,81.1,77.1,79.6,76.8,74.6,94,87,74,29.84,29.60,30,6,30,0.80
2012-8-28,88.9,83.3,76.2,78.5,76.6,72.9,93,81,65,29.95,29.83,25,5,26,0.12
2012-8-29,89.2,82.3,77.3,77.8,76.1,72.8,95,82,62,29.96,29.87,18,3,18,0.01
2012-8-30,90.7,81.9,76.9,77.9,75.4,72.1,93,82,56,30.06,29.91,14,1,14,0.43
2012-8-31,92.4,83.4,76.8,78.0,75.4,72.2,94,79,53,30.11,30.01,13,2,13,0.00
2012-9-1,91.8,83.3,77.2,77.6,74.9,71.0,95,77,53,30.08,29.96,13,2,13,0.00
2012-9-2,89.5,81.6,73.3,74.7,71.3,62.4,93,73,48,30.03,29.91,12,2,12,0.00
2012-9-3,79.8,77.8,75.3,72.2,71.6,71.1,89,82,76,29.98,29.95,4,0,5,0.00
2012-9-17,83.2,77.8,75.4,77.1,74.9,72.6,94,91,79,29.93,29.86,17,1,17,0.98
2012-9-18,87.3,79.0,74.3,79.0,75.0,71.7,95,88,71,29.95,29.85,22,3,23,0.42
2012-9-19,86.7,80.0,74.1,77.0,74.2,70.5,97,84,61,30.01,29.88,12,1,12,0.02
2012-9-20,89.7,79.1,73.8,76.0,73.6,70.6,95,84,58,30.00,29.87,20,1,20,0.38
2012-9-21,87.7,76.6,72.9,76.5,72.5,70.8,95,88,62,29.96,29.84,15,1,15,1.28
2012-9-22,83.0,75.5,72.7,76.4,72.9,70.9,95,92,74,29.99,29.89,16,1,16,0.17
2012-9-23,87.2,79.2,73.8,75.1,72.8,66.3,96,82,53,30.02,29.93,12,2,12,0.01
2012-9-24,85.1,78.4,74.2,74.5,71.9,68.7,95,81,61,30.05,29.94,12,2,12,0.00
2012-9-25,85.6,78.3,72.7,75.5,70.1,65.9,84,76,63,30.04,29.94,11,1,11,0.00
2012-9-26,87.4,80.1,75.4,75.5,72.5,69.7,89,78,57,30.06,29.96,10,1,10,0.00
2012-9-27,87.2,77.1,73.9,76.0,72.7,69.8,94,87,65,30.05,29.99,10,2,10,0.00
2012-10-2,86.3,78.7,74.1,78.3,74.6,72.2,96,88,68,29.99,29.83,19,3,19,1.28
2012-10-3,90.0,79.1,74.7,77.5,74.9,72.8,96,88,63,30.06,29.97,11,2,11,0.06
2012-10-9,87.6,82.9,78.0,77.7,75.2,72.0,93,78,60,29.99,29.90,11,1,11,0.07
2012-10-10,87.3,79.8,74.2,76.1,73.3,69.8,94,81,60,30.04,29.94,11,2,11,0.02
2012-10-11,86.0,77.5,70.3,71.6,68.3,66.0,89,74,53,30.10,30.00,18,3,18,0.01
2012-10-12,84.7,76.5,69.7,68.4,66.8,62.0,91,74,49,30.10,30.01,18,4,18,0.01
2012-10-27,74.6,73.7,73.1,65.8,64.8,63.7,78,74,70,29.69,29.64,18,5,18,0.00
2012-10-28,77.5,73.3,69.1,67.6,62.9,56.4,83,71,55,29.76,29.66,28,6,28,0.00
2012-10-29,69.5,65.5,59.7,57.8,52.1,46.4,81,63,46,29.86,29.74,23,6,23,0.00
2012-10-30,68.8,62.6,54.0,55.8,50.4,41.9,90,65,48,29.95,29.78,26,3,26,0.00
2012-10-31,74.2,64.2,56.3,59.3,56.3,54.0,95,77,54,30.02,29.93,16,1,16,0.00
2012-11-1,77.3,67.7,58.7,66.6,61.5,56.6,96,82,59,30.02,29.93,15,2,15,0.00
2012-11-2,79.2,69.0,61.9,64.8,58.5,48.8,96,73,36,30.06,29.96,13,1,13,0.00
2012-11-3,83.2,68.4,58.0,66.9,60.4,56.2,96,78,45,30.10,29.99,12,1,12,0.00
2012-11-4,81.5,69.0,60.0,65.2,61.5,57.0,97,80,44,30.07,29.95,11,0,11,0.00
2012-11-5,77.5,69.9,64.2,68.1,65.7,62.4,96,87,70,29.98,29.88,10,1,10,0.00
2012-11-6,77.0,67.8,64.3,68.3,65.3,62.7,96,92,71,29.91,29.80,21,1,21,0.00
2012-11-7,70.7,63.9,58.6,64.7,55.7,51.1,94,76,52,29.95,29.82,24,3,24,0.00
2012-11-8,68.6,60.8,54.6,54.0,45.7,38.0,87,60,35,30.12,29.93,20,3,20,0.00
2012-11-9,75.3,63.0,52.6,56.7,49.8,44.6,81,64,37,30.19,30.08,13,2,13,0.00
2012-11-10,76.4,66.3,58.1,58.0,55.7,53.0,86,70,49,30.23,30.13,18,2,18,0.00
2012-11-11,81.1,69.4,59.6,62.2,58.4,55.7,91,70,44,30.20,30.11,16,2,16,0.00
2012-11-12,78.3,70.9,63.8,68.4,64.7,60.4,94,81,62,30.17,30.07,16,2,16,0.00
2012-11-13,81.1,71.4,64.1,68.3,64.7,62.4,95,81,56,30.11,30.01,12,2,12,0.00
2012-11-14,80.3,69.3,64.7,68.4,64.7,62.6,95,86,62,30.10,30.01,11,2,11,0.00
2012-11-21,73.8,66.9,57.5,56.7,52.9,48.7,81,62,46,30.04,29.92,20,4,20,0.00
2012-11-22,73.5,61.9,50.7,51.0,46.2,38.2,92,60,28,30.11,29.99,20,3,20,0.00
2012-11-23,74.3,60.9,52.5,53.9,45.8,34.0,90,60,24,30.15,30.02,13,2,13,0.00
2012-11-24,75.1,61.8,49.6,60.2,54.3,47.4,96,78,47,30.09,29.97,16,2,16,0.00
2012-11-25,72.8,58.8,49.1,53.3,48.9,45.1,94,73,38,30.12,30.01,10,1,10,0.00
2012-11-26,80.0,63.9,51.1,62.2,56.6,48.6,95,79,48,30.16,30.05,11,1,11,0.01
2012-11-27,81.0,68.3,58.6,67.6,62.7,56.8,96,83,49,30.14,30.04,14,1,14,0.00
2012-11-28,76.4,67.8,61.8,65.7,63.0,58.5,96,85,65,30.17,30.06,13,2,13,0.01
2012-11-29,79.6,66.9,57.1,64.3,59.2,55.1,95,78,53,30.19,30.08,17,4,17,0.00
2012-11-30,77.0,67.7,59.9,64.4,60.5,57.3,92,78,61,30.17,30.07,18,2,18,0.00
2012-12-1,80.1,68.3,58.1,63.0,59.8,54.9,92,76,51,30.17,30.07,16,2,16,0.00
2012-12-2,81.1,70.1,61.8,66.0,62.4,59.9,96,78,50,30.19,30.08,16,2,17,0.00
2012-12-3,80.6,69.4,60.2,65.7,59.4,53.7,96,73,42,30.21,30.10,17,2,17,0.01
2012-12-4,78.3,67.8,59.3,63.0,59.1,56.2,95,75,53,30.21,30.10,12,2,12,0.00
2012-12-5,76.5,66.0,59.5,66.6,61.9,56.9,95,87,67,30.12,29.98,11,0,11,0.00
2012-12-6,79.4,69.4,61.1,69.8,64.4,59.4,96,85,64,30.00,29.86,11,1,11,0.00
2012-12-7,81.4,69.9,62.0,68.5,64.5,60.5,96,84,59,29.95,29.85,11,1,11,0.01
2012-12-8,80.7,70.4,63.4,71.0,67.0,62.0,97,89,67,30.01,29.90,11,1,11,0.08
2012-12-9,82.4,72.1,63.8,72.9,68.3,62.6,97,88,68,30.06,29.95,9,1,9,0.05
2012-12-10,84.7,74.8,66.0,74.9,70.9,64.2,96,88,71,29.98,29.84,17,2,17,0.01
2012-12-11,78.9,74.0,70.7,74.2,71.6,69.0,96,92,80,30.00,29.86,19,1,19,0.96
2012-12-12,79.2,74.7,70.2,74.8,72.5,68.2,96,93,85,30.03,29.95,19,2,20,0.07
2012-12-13,72.2,68.3,62.5,71.0,64.6,58.3,96,88,77,30.11,29.98,16,4,16,0.02
2012-12-14,76.7,66.5,58.9,65.6,60.9,56.0,93,83,62,30.13,30.00,17,4,17,0.01
2012-12-15,79.2,69.2,61.0,67.7,62.8,59.3,95,81,58,30.08,29.96,13,2,13,0.00
2012-12-16,80.6,70.5,62.1,68.2,64.9,60.5,96,84,62,30.01,29.89,12,1,12,0.00
2012-12-17,67.8,66.0,64.5,65.4,64.3,63.0,96,94,92,29.94,29.89,3,0,3,0.00